Weather in Novotyryshkino

Russia / Novosibirsk Oblast     55°17′14″N   82°24′35″E
temp.,
°C
wind,
m/s
gust,
m/s
humid.,
%
clouds,
%
prec.,
mm/h
press.,
hPa
HPBL,
m
27 february, sat
sat2701:00−25sw51094100 0.1 1034579
04:00−25sw4994100 0.1 1035483
07:00−26sw4897100 0.2 1036372
10:00−25sw4894100 0.1 1036463
13:00−23wsw4791100 0.1 1036553
16:00−22wsw4689100 0.0 1036561
19:00−26sw3396100 0.1 103728
22:00−29sw339560 0.0 103829
28 february, sun
sun2801:00−30sw339639 0.0 103831
04:00−31ssw339735 0.0 103821
07:00−31s339739 0.0 103830
10:00−28sse359762 0.0 1037130
13:00−22sse469370 0.0 1034315
16:00−19sse469193 0.0 1032373
19:00−18ese339496 0.0 102859
22:00−15ese3797100 0.1 1026245
1 march, mon
mon101:00−14ese3796100 0.4 1022240
04:00−11se41095100 0.4 1018417
07:00−9ese51095100 2.0 1014454
10:00−6se61095100 1.9 1011526
13:00−3ese5897100 4.4 1008379
16:000sw61299100 3.4 1006603
19:000sw61198100 4.6 1005570
22:00−3nw3798100 2.0 1006313
2 march, tue
tue201:00−10nne3595100 2.7 1007133
04:00−11nne3496100 0.4 1010134
07:00−14n239597 0.7 101256
10:00−14nnw239599 0.1 1015149
13:00−12wsw3487100 0.2 1017511
16:00−12wsw4588100 0.1 1018579
19:00−14sw3394100 0.1 101844
22:00−17wsw229586 0.0 101820
3 march, wed
wed301:00−18s119693 0.0 101720
04:00−17ese1197100 0.1 101620
07:00−17ene129798 0.3 101621
10:00−15ne2295100 0.2 1015114
13:00−12n2290100 0.5 1016294
16:00−11wsw2288100 0.2 1017356
19:00−13wsw239494 0.3 102037
22:00−16wsw239679 0.0 102220